THORAD AGENA D DEB

Satellite information

Favourite Embed

Satellite Type and Status

DEBRISIN ORBIT

Key statistics

Satellite THORAD AGENA D DEB at a glance.

Uptime

20430

Days in orbit

Revolutions

≈ 14.4

Per day

Orbit

LEO

Low Earth Orbit

Inclination

70.0

Latest

Satellite identification and parameters

Extended collection of information and parameters for THORAD AGENA D DEB.

Object identification

Identified? True

Debris? True

Object name: THORAD AGENA D DEB

International designator: 1969-082CG

Object number (NORAD): 4217

Object ID (CCSDS): 4217

Country: UNITED STATES OF AMERICA (US)

Current information (Y/N): Y

RCS size: MEDIUM

Orbital parameters

Period: 99.923 minutes

Inclination: 70.0379 deg

SMA: 7132.965 km

Apoapsis: 778.357 km

Periapsis: 731.302 km

RAAN: 83.7979 deg

Eccentricy: 0.00329841

Argument of periapsis: 50.2693 deg

Mean anomaly: 310.1335 deg

Mean motion: 14.41111705 rev/day

Mean motion (dot): 0.00001746 rev/day2

B* drag term: 0.00055600628 1/REarth

Two-line elements (TLE)

Creation date: Sept. 6, 2025, 2:09 a.m.

Reference frame: TEME

Reference center: EARTH

Epoch: Sept. 5, 2025, 10:25 p.m. UTC

TLE line 0: 0 THORAD AGENA D DEB

TLE line 1: 1 04217U 69082CG 25248.93465672 .00001746 00000-0 55601-3 0 9990

TLE line 2: 2 04217 70.0379 83.7979 0032984 50.2693 310.1335 14.41111705906833

Live tracking on map

Real-time ground track for satellite THORAD AGENA D DEB.

In-orbit conjunctions

A list of the most updated potential collisions computed for object THORAD AGENA D DEB.

Target Orbit TCA Probability of collision Miss distance Type
SEASAT 1 SSO 2025-04-30 21:56:37 0.0001303807 426.0 (m) PAYLOAD
FENGYUN 1C DEB SSO 2024-11-12 23:59:32 0.0001104682 764.0 (m) DEBRIS

Associated space launch

Poppy was the follow-on ELINT system, which succeeded the Grab ELINT satellite system.

THORAD AGENA D DEB was lifted into orbit during the mission ‘Thorad SLV-2G Agena D | Poppy 8A,B,C,D’, on board a Thorad SLV-2G Agena D space rocket.

The launch took place on Sept. 30, 1969, 1:40 p.m. from Space Launch Complex 1W.

For more information about the launch, click the button.

Launch to space Thorad SLV-2G Agena D | Poppy 8A,B,C,D
Thorad SLV-2G Agena D | Poppy 8A,B,C,D

Agency: N/A

Status: Launch Successful

Launch date: Sept. 30, 1969, 1:40 p.m. UTC

Rocket: Thorad SLV-2G Agena D

Launch pad: Space Launch Complex 1W

Location: Vandenberg SFB, CA, USA

...

Latest news about this satellite

There are no fresh news available about this satellite. Check back as we update our databases every day.


Newsletter sign-up

Weekly statistics, charts and insights to help you stay on top of the space industry.